SAS451 EFTU-ESNU

Flight info

Callsign SAS451
Flight time 0h 37m
Altitude 30000
Route NIRPU4A NIRPU DCT IRGAL DCT LENSO LENSO3T
Aircraft A320/M-SDE2E3FGHIJ1RWXY/L

Departure

Time 2026-05-05 13:27
Airport Turku Airport (EFTU)

Arrival

Time 2026-05-05 14:05
Airport Umeå Airport (ESNU)
Time Latitude Longitude Altitude Speed Heading
2026-05-05 13:06 60.51177 22.27341 148 ft 0 kts 149°
2026-05-05 13:22 60.51185 22.27331 148 ft 2 kts 99°
2026-05-05 13:22 60.51183 22.27305 148 ft 2 kts
2026-05-05 13:22 60.51188 22.27293 148 ft 5 kts 328°
2026-05-05 13:23 60.51209 22.27258 148 ft 0 kts 334°
2026-05-05 13:23 60.51216 22.27252 148 ft 4 kts 338°
2026-05-05 13:24 60.51281 22.27288 148 ft 16 kts 27°
2026-05-05 13:24 60.51342 22.27486 149 ft 19 kts 81°
2026-05-05 13:24 60.51354 22.27770 149 ft 22 kts 85°
2026-05-05 13:24 60.51369 22.28093 150 ft 24 kts 84°
2026-05-05 13:25 60.51387 22.28449 150 ft 24 kts 73°
2026-05-05 13:25 60.51409 22.28515 150 ft 0 kts 28°
2026-05-05 13:26 60.51449 22.28531 150 ft 15 kts 353°
2026-05-05 13:26 60.51503 22.28331 150 ft 10 kts 265°
2026-05-05 13:26 60.51503 22.28324 150 ft 0 kts 265°
2026-05-05 13:27 60.51488 22.28004 150 ft 64 kts 265°
2026-05-05 13:27 60.51428 22.26559 148 ft 138 kts 265°
2026-05-05 13:27 60.51336 22.24452 749 ft 150 kts 265°
2026-05-05 13:27 60.51227 22.22228 1669 ft 163 kts 265°
2026-05-05 13:28 60.51117 22.19895 2598 ft 174 kts 266°
2026-05-05 13:28 60.51003 22.17329 3417 ft 187 kts 266°
2026-05-05 13:28 60.51125 22.14720 4505 ft 188 kts 290°
2026-05-05 13:28 60.51925 22.12614 5571 ft 195 kts 322°
2026-05-05 13:29 60.53226 22.11697 6502 ft 205 kts 349°
2026-05-05 13:29 60.54704 22.11436 7046 ft 223 kts 351°
2026-05-05 13:29 60.56328 22.11181 7518 ft 243 kts 351°
2026-05-05 13:29 60.58037 22.10912 8413 ft 247 kts 351°
2026-05-05 13:30 60.59773 22.10824 9407 ft 253 kts 359°
2026-05-05 13:30 60.61575 22.11112 10047 ft 271 kts 359°
2026-05-05 13:30 60.63516 22.11390 10402 ft 296 kts 359°
2026-05-05 13:30 60.65654 22.11685 10733 ft 321 kts 359°
2026-05-05 13:31 60.67956 22.12009 11168 ft 338 kts 359°
2026-05-05 13:31 60.70260 22.12347 11908 ft 345 kts 358°
2026-05-05 13:31 60.72685 22.12705 12661 ft 353 kts 357°
2026-05-05 13:31 60.75161 22.13031 13421 ft 358 kts 353°
2026-05-05 13:32 60.77616 22.12556 14122 ft 352 kts 339°
2026-05-05 13:32 60.79917 22.11033 14896 ft 343 kts 326°
2026-05-05 13:32 60.82085 22.08936 15636 ft 346 kts 324°
2026-05-05 13:32 60.84278 22.06821 16388 ft 350 kts 324°
2026-05-05 13:33 60.86493 22.04692 17121 ft 354 kts 323°
2026-05-05 13:33 60.88712 22.02561 17848 ft 358 kts 322°
2026-05-05 13:33 60.90981 22.00377 18492 ft 362 kts 322°
2026-05-05 13:33 60.93269 21.98167 19133 ft 365 kts 322°
2026-05-05 13:34 60.95581 21.95927 19762 ft 368 kts 322°
2026-05-05 13:34 60.97914 21.93661 20383 ft 372 kts 322°
2026-05-05 13:34 61.00265 21.91371 21008 ft 375 kts 322°
2026-05-05 13:34 61.02637 21.89054 21623 ft 378 kts 322°
2026-05-05 13:35 61.05030 21.86714 22237 ft 382 kts 322°
2026-05-05 13:35 61.07440 21.84354 22847 ft 385 kts 322°
2026-05-05 13:35 61.09845 21.81997 23434 ft 388 kts 322°
2026-05-05 13:35 61.12293 21.79591 23919 ft 392 kts 322°
2026-05-05 13:36 61.14733 21.77191 24407 ft 395 kts 322°
2026-05-05 13:36 61.16547 21.75405 24760 ft 397 kts 322°
2026-05-05 13:36 61.19054 21.72932 25223 ft 400 kts 322°
2026-05-05 13:36 61.21580 21.70435 25678 ft 403 kts 322°
2026-05-05 13:37 61.24120 21.67919 26136 ft 406 kts 322°
2026-05-05 13:37 61.26681 21.65380 26575 ft 409 kts 322°
2026-05-05 13:37 61.29266 21.62811 27014 ft 412 kts 322°
2026-05-05 13:37 61.31867 21.60222 27438 ft 415 kts 322°
2026-05-05 13:38 61.34482 21.57614 27842 ft 418 kts 322°
2026-05-05 13:38 61.37120 21.54980 28246 ft 421 kts 322°
2026-05-05 13:38 61.39771 21.52327 28639 ft 424 kts 322°
2026-05-05 13:38 61.42404 21.49687 29013 ft 426 kts 322°
2026-05-05 13:39 61.45082 21.46998 29390 ft 428 kts 322°
2026-05-05 13:39 61.47779 21.44285 29727 ft 431 kts 322°
2026-05-05 13:39 61.53190 21.38833 29790 ft 431 kts 322°
2026-05-05 13:40 61.58585 21.33377 29782 ft 430 kts 321°
2026-05-05 13:40 61.63964 21.27909 29783 ft 429 kts 321°
2026-05-05 13:41 61.69329 21.22433 29777 ft 428 kts 321°
2026-05-05 13:41 61.74687 21.16942 29781 ft 428 kts 321°
2026-05-05 13:42 61.80043 21.11433 29782 ft 427 kts 321°
2026-05-05 13:42 61.85351 21.05950 29776 ft 427 kts 320°
2026-05-05 13:43 61.90691 21.00411 29773 ft 427 kts 320°
2026-05-05 13:43 61.96037 20.94846 29759 ft 428 kts 320°
2026-05-05 13:44 62.01390 20.89251 29772 ft 428 kts 320°
2026-05-05 13:44 62.06716 20.83663 29770 ft 429 kts 320°
2026-05-05 13:45 62.12084 20.78006 29762 ft 430 kts 320°
2026-05-05 13:45 62.17450 20.72331 29766 ft 431 kts 321°
2026-05-05 13:46 62.22829 20.66619 29761 ft 432 kts 321°
2026-05-05 13:46 62.28215 20.60876 29755 ft 432 kts 321°
2026-05-05 13:47 62.33611 20.55099 29756 ft 433 kts 321°
2026-05-05 13:47 62.39014 20.49291 29752 ft 434 kts 321°
2026-05-05 13:48 62.44428 20.43448 29749 ft 435 kts 322°
2026-05-05 13:48 62.49847 20.37576 29751 ft 436 kts 322°
2026-05-05 13:49 62.55276 20.31669 29742 ft 437 kts 322°
2026-05-05 13:49 62.60687 20.25758 29747 ft 438 kts 323°
2026-05-05 13:50 62.66122 20.19799 29144 ft 437 kts 323°
2026-05-05 13:50 62.68844 20.16797 28255 ft 440 kts 324°
2026-05-05 13:50 62.71588 20.13760 27239 ft 443 kts 324°
2026-05-05 13:51 62.74328 20.10729 26516 ft 440 kts 325°
2026-05-05 13:51 62.77045 20.07727 25877 ft 434 kts 326°
2026-05-05 13:51 62.79723 20.04769 25257 ft 429 kts 327°
2026-05-05 13:51 62.82519 20.02382 24633 ft 433 kts 337°
2026-05-05 13:52 62.85477 20.01087 24070 ft 435 kts 347°
2026-05-05 13:52 62.88498 20.00764 23509 ft 433 kts 352°
2026-05-05 13:52 62.91496 20.00590 22894 ft 427 kts 352°
2026-05-05 13:52 62.94439 20.00404 22246 ft 420 kts 353°
2026-05-05 13:53 62.97348 20.00221 21601 ft 414 kts 353°
2026-05-05 13:53 63.00171 20.00046 20987 ft 409 kts 354°
2026-05-05 13:53 63.02995 19.99874 20357 ft 403 kts 354°
2026-05-05 13:53 63.05787 19.99706 19740 ft 398 kts 354°
2026-05-05 13:54 63.08538 19.99541 19131 ft 393 kts 355°
2026-05-05 13:54 63.11258 19.99378 18537 ft 388 kts 355°
2026-05-05 13:54 63.13944 19.99219 17935 ft 384 kts 355°
2026-05-05 13:54 63.16608 19.99063 17236 ft 379 kts 355°
2026-05-05 13:55 63.19236 19.98909 16549 ft 376 kts 355°
2026-05-05 13:55 63.21806 19.98758 15887 ft 372 kts 355°
2026-05-05 13:55 63.24385 19.98957 15205 ft 372 kts
2026-05-05 13:55 63.26840 20.00756 14544 ft 374 kts 25°
2026-05-05 13:56 63.28952 20.04102 13913 ft 375 kts 39°
2026-05-05 13:56 63.30890 20.07937 13280 ft 372 kts 39°
2026-05-05 13:56 63.32808 20.11750 12610 ft 369 kts 39°
2026-05-05 13:56 63.34470 20.15054 12067 ft 364 kts 39°
2026-05-05 13:57 63.36317 20.18736 11323 ft 355 kts 39°
2026-05-05 13:57 63.38178 20.22439 10523 ft 359 kts 39°
2026-05-05 13:57 63.40026 20.26123 10161 ft 350 kts 39°
2026-05-05 13:57 63.41799 20.29670 10003 ft 335 kts 39°
2026-05-05 13:58 63.43509 20.33098 9754 ft 325 kts 39°
2026-05-05 13:58 63.45215 20.36510 9690 ft 336 kts 39°
2026-05-05 13:58 63.46939 20.39963 9680 ft 328 kts 39°
2026-05-05 13:58 63.48596 20.43302 9675 ft 311 kts 39°
2026-05-05 13:59 63.51745 20.49084 9671 ft 273 kts 26°
2026-05-05 13:59 63.53326 20.51083 9673 ft 257 kts 25°
2026-05-05 14:00 63.56289 20.54885 9325 ft 241 kts 25°
2026-05-05 14:00 63.57270 20.56145 9095 ft 240 kts 25°
2026-05-05 14:00 63.59240 20.58293 8622 ft 233 kts
2026-05-05 14:00 63.60823 20.58317 8261 ft 225 kts 344°
2026-05-05 14:01 63.62355 20.57578 7938 ft 224 kts 344°
2026-05-05 14:01 63.63874 20.56864 7620 ft 223 kts 344°
2026-05-05 14:01 63.65313 20.55692 7300 ft 218 kts 326°
2026-05-05 14:01 63.66495 20.53606 6923 ft 218 kts 315°
2026-05-05 14:02 63.67649 20.51265 6300 ft 230 kts 316°
2026-05-05 14:02 63.68899 20.48759 5374 ft 251 kts 316°
2026-05-05 14:02 63.70279 20.46009 4341 ft 274 kts 316°
2026-05-05 14:02 63.71724 20.43147 3241 ft 278 kts 316°
2026-05-05 14:03 63.73119 20.40407 1728 ft 250 kts 316°
2026-05-05 14:03 63.74317 20.38038 1139 ft 204 kts 316°
2026-05-05 14:03 63.75280 20.36166 885 ft 164 kts 314°
2026-05-05 14:03 63.76054 20.34553 662 ft 145 kts 311°
2026-05-05 14:04 63.76791 20.33098 439 ft 135 kts 313°
2026-05-05 14:04 63.77483 20.31718 233 ft 127 kts 312°
2026-05-05 14:04 63.78106 20.30447 68 ft 115 kts 311°
2026-05-05 14:04 63.78678 20.29276 27 ft 77 kts 319°
2026-05-05 14:05 63.78858 20.28937 29 ft 24 kts 318°
2026-05-05 14:05 63.78984 20.28676 30 ft 25 kts 318°
2026-05-05 14:05 63.79113 20.28424 28 ft 24 kts 324°
2026-05-05 14:05 63.79177 20.28439 29 ft 4 kts 59°
2026-05-05 14:06 63.79198 20.28507 30 ft 9 kts 52°
2026-05-05 14:06 63.79252 20.28679 30 ft 0 kts 86°
2026-05-05 14:06 63.79247 20.28761 30 ft 8 kts 73°
2026-05-05 14:06 63.79273 20.28839 30 ft 1 kts 51°
2026-05-05 14:07 63.79274 20.28845 30 ft 0 kts 51°